Location: *
(31.2983°S, 151.4094°E)
Time: 09:31:34
(UTC+00:00)

USA 81 - Pass Details

Date: 25 August 2019
Orbit: 785 x 788 km, 85.0° (Epoch: 08 October)

Event Time Altitude Azimuth Distance (km) Brightness Sun altitude
Rises 19:40:37 0° 181° (S) 3,314 7.2 -8.9°
Reaches altitude 10° 19:43:00 10° 178° (S) 2,378 6.5 -8.4°
Maximum altitude 19:48:20 71° 94° (E) 840 4.5 -7.2°
Drops below altitude 10° 19:53:36 10° 9° (N) 2,347 6.8 -6.1°
Sets 19:55:57 0° 7° (N) 3,268 7.5 -5.6°
